"Period start","avg(HW err(1)/warn(2) (#))","avg(Visibility (m))","avg(Weather code (#))","avg(Precip intensity (mm/h))","min(HW err(1)/warn(2) (#))","max(HW err(1)/warn(2) (#))","std(HW err(1)/warn(2) (#))","med(HW err(1)/warn(2) (#))","min(Visibility (m))","max(Visibility (m))","std(Visibility (m))","med(Visibility (m))","min(Weather code (#))","max(Weather code (#))","std(Weather code (#))","med(Weather code (#))","min(Precip intensity (mm/h))","max(Precip intensity (mm/h))","std(Precip intensity (mm/h))","med(Precip intensity (mm/h))"
2014-05-14 00:00:00,2,18461,0,0.00,2,2,0,2,11464,35395,6944,16484,0,0,0,0,0.00,0.00,0.00,0.00
2014-05-14 00:10:00,2,17141,0,0.00,2,2,0,2,12816,25724,3825,16080,0,0,0,0,0.00,0.00,0.00,0.00
2014-05-14 00:20:00,2,26516,0,0.00,2,2,0,2,14939,45829,10233,22592,0,0,0,0,0.00,0.00,0.00,0.00
2014-05-14 00:30:00,2,36151,0,0.00,2,2,0,2,19658,50000,9011,37282,0,0,0,0,0.00,0.00,0.00,0.00
2014-05-14 00:40:00,2,39864,0,0.00,2,2,0,2,23214,48937,9093,41304,0,0,0,0,0.00,0.00,0.00,0.00
2014-05-14 00:50:00,2,36227,0,0.00,2,2,0,2,26231,50000,8455,33500,0,0,0,0,0.00,0.00,0.00,0.00
2014-05-14 01:00:00,2,35459,0,0.00,2,2,0,2,24815,48663,8519,33201,0,0,0,0,0.00,0.00,0.00,0.00
2014-05-14 01:10:00,2,28898,0,0.00,2,2,0,2,18145,33568,4614,31076,0,0,0,0,0.00,0.00,0.00,0.00
2014-05-14 01:20:00,2,36748,0,0.00,2,2,0,2,25673,50000,8935,35668,0,0,0,0,0.00,0.00,0.00,0.00
2014-05-14 01:30:00,2,36321,0,0.00,2,2,0,2,27615,44040,4978,37384,0,0,0,0,0.00,0.00,0.00,0.00
2014-05-14 01:40:00,2,31838,0,0.00,2,2,0,2,23090,43589,6737,31990,0,0,0,0,0.00,0.00,0.00,0.00
2014-05-14 01:50:00,2,33048,0,0.00,2,2,0,2,18410,46750,8096,33060,0,0,0,0,0.00,0.00,0.00,0.00
2014-05-14 02:00:00,2,29691,0,0.00,2,2,0,2,20519,47075,7807,28384,0,0,0,0,0.00,0.00,0.00,0.00
2014-05-14 02:10:00,2,40372,0,0.00,2,2,0,2,34157,50000,4790,38741,0,0,0,0,0.00,0.00,0.00,0.00
2014-05-14 02:20:00,2,35277,0,0.00,2,2,0,2,29149,43797,5090,33914,0,0,0,0,0.00,0.00,0.00,0.00
2014-05-14 02:30:00,2,35296,0,0.00,2,2,0,2,25355,45508,6687,33288,0,0,0,0,0.00,0.00,0.00,0.00
2014-05-14 02:40:00,2,38086,0,0.00,2,2,0,2,26602,50000,8257,37300,0,0,0,0,0.00,0.00,0.00,0.00
2014-05-14 02:50:00,2,39667,0,0.00,2,2,0,2,31071,50000,4586,40236,0,0,0,0,0.00,0.00,0.00,0.00
2014-05-14 03:00:00,2,35280,0,0.00,2,2,0,2,24099,45066,6886,35188,0,0,0,0,0.00,0.00,0.00,0.00
2014-05-14 03:10:00,2,39468,0,0.00,2,2,0,2,32369,50000,5435,38657,0,0,0,0,0.00,0.00,0.00,0.00
2014-05-14 03:20:00,2,43114,0,0.00,2,2,0,2,29987,50000,6830,43809,0,0,0,0,0.00,0.00,0.00,0.00
2014-05-14 03:30:00,2,38085,0,0.00,2,2,0,2,28372,50000,6638,37898,0,0,0,0,0.00,0.00,0.00,0.00
2014-05-14 03:40:00,2,42068,0,0.00,2,2,0,2,24207,50000,8807,45217,0,0,0,0,0.00,0.00,0.00,0.00
2014-05-14 03:50:00,2,35345,0,0.00,2,2,0,2,27006,49011,6498,35798,0,0,0,0,0.00,0.00,0.00,0.00
2014-05-14 04:00:00,2,37752,0,0.00,2,2,0,2,27835,50000,7887,37434,0,0,0,0,0.00,0.00,0.00,0.00
2014-05-14 04:10:00,2,34641,0,0.00,2,2,0,2,21004,42927,6106,33888,0,0,0,0,0.00,0.00,0.00,0.00
2014-05-14 04:20:00,2,33367,0,0.00,2,2,0,2,23993,43487,5952,32154,0,0,0,0,0.00,0.00,0.00,0.00
2014-05-14 04:30:00,2,34596,0,0.00,2,2,0,2,22562,44564,6603,34543,0,0,0,0,0.00,0.00,0.00,0.00
2014-05-14 04:40:00,2,41864,0,0.00,2,2,0,2,30176,50000,6567,43849,0,0,0,0,0.00,0.00,0.00,0.00
2014-05-14 04:50:00,2,41281,0,0.00,2,2,0,2,27900,50000,7063,42180,0,0,0,0,0.00,0.00,0.00,0.00
2014-05-14 05:00:00,2,42583,0,0.00,2,2,0,2,26244,50000,8311,45550,0,0,0,0,0.00,0.00,0.00,0.00
2014-05-14 05:10:00,2,44801,0,0.00,2,2,0,2,32792,50000,6396,47924,0,0,0,0,0.00,0.00,0.00,0.00
2014-05-14 05:20:00,2,41598,0,0.00,2,2,0,2,27630,49889,7071,41646,0,0,0,0,0.00,0.00,0.00,0.00
2014-05-14 05:30:00,2,36900,0,0.00,2,2,0,2,26599,50000,7524,36068,0,0,0,0,0.00,0.00,0.00,0.00
2014-05-14 05:40:00,2,42222,0,0.00,2,2,0,2,28893,48290,5503,43194,0,0,0,0,0.00,0.00,0.00,0.00
2014-05-14 05:50:00,2,33568,0,0.00,2,2,0,2,23330,40332,4469,33834,0,0,0,0,0.00,0.00,0.00,0.00
2014-05-14 06:00:00,2,40915,0,0.00,2,2,0,2,26045,50000,7305,41804,0,0,0,0,0.00,0.00,0.00,0.00
2014-05-14 06:10:00,2,41155,0,0.00,2,2,0,2,32520,50000,6103,40711,0,0,0,0,0.00,0.00,0.00,0.00
2014-05-14 06:20:00,2,42679,0,0.00,2,2,0,2,33707,47392,4482,43956,0,0,0,0,0.00,0.00,0.00,0.00
2014-05-14 06:30:00,2,41921,0,0.00,2,2,0,2,35799,49311,4482,41450,0,0,0,0,0.00,0.00,0.00,0.00
2014-05-14 06:40:00,2,42740,0,0.00,2,2,0,2,29934,50000,6847,43101,0,0,0,0,0.00,0.00,0.00,0.00
2014-05-14 06:50:00,2,43338,0,0.00,2,2,0,2,28635,50000,7895,47010,0,0,0,0,0.00,0.00,0.00,0.00
2014-05-14 07:00:00,2,42240,0,0.00,2,2,0,2,34075,50000,4799,40840,0,0,0,0,0.00,0.00,0.00,0.00
2014-05-14 07:10:00,2,44539,0,0.00,2,2,0,2,31821,50000,5807,47202,0,0,0,0,0.00,0.00,0.00,0.00
2014-05-14 07:20:00,2,40938,0,0.00,2,2,0,2,33293,50000,5045,40895,0,0,0,0,0.00,0.00,0.00,0.00
2014-05-14 07:30:00,2,46187,0,0.00,2,2,0,2,35375,50000,4504,47176,0,0,0,0,0.00,0.00,0.00,0.00
2014-05-14 07:40:00,2,44349,0,0.00,2,2,0,2,39700,49783,3130,43846,0,0,0,0,0.00,0.00,0.00,0.00
2014-05-14 07:50:00,2,46036,0,0.00,2,2,0,2,36611,50000,5107,49471,0,0,0,0,0.00,0.00,0.00,0.00
2014-05-14 08:00:00,2,44972,0,0.00,2,2,0,2,40230,50000,3197,43532,0,0,0,0,0.00,0.00,0.00,0.00
2014-05-14 08:10:00,2,48366,0,0.00,2,2,0,2,46320,50000,1520,48440,0,0,0,0,0.00,0.00,0.00,0.00
2014-05-14 08:20:00,2,45648,0,0.00,2,2,0,2,38824,50000,4063,46299,0,0,0,0,0.00,0.00,0.00,0.00
2014-05-14 08:30:00,2,45275,0,0.00,2,2,0,2,32671,50000,5683,48072,0,0,0,0,0.00,0.00,0.00,0.00
2014-05-14 08:40:00,2,46169,0,0.00,2,2,0,2,39017,50000,3558,47672,0,0,0,0,0.00,0.00,0.00,0.00
2014-05-14 08:50:00,2,47316,0,0.00,2,2,0,2,38312,50000,3851,49148,0,0,0,0,0.00,0.00,0.00,0.00
2014-05-14 09:00:00,2,47864,0,0.00,2,2,0,2,43654,50000,2530,49448,0,0,0,0,0.00,0.00,0.00,0.00
2014-05-14 09:10:00,2,49464,0,0.00,2,2,0,2,45343,50000,1390,50000,0,0,0,0,0.00,0.00,0.00,0.00
2014-05-14 09:20:00,2,45854,0,0.00,2,2,0,2,38625,50000,4475,47882,0,0,0,0,0.00,0.00,0.00,0.00
2014-05-14 09:30:00,2,45939,0,0.00,2,2,0,2,39744,50000,3141,46378,0,0,0,0,0.00,0.00,0.00,0.00
2014-05-14 09:40:00,2,48489,0,0.00,2,2,0,2,42248,50000,2514,50000,0,0,0,0,0.00,0.00,0.00,0.00
2014-05-14 09:50:00,2,47458,0,0.00,2,2,0,2,40360,50000,3478,49612,0,0,0,0,0.00,0.00,0.00,0.00
2014-05-14 10:00:00,2,49548,0,0.00,2,2,0,2,48284,50000,698,50000,0,0,0,0,0.00,0.00,0.00,0.00
2014-05-14 10:10:00,2,47035,0,0.00,2,2,0,2,35596,50000,4951,49663,0,0,0,0,0.00,0.00,0.00,0.00
2014-05-14 10:20:00,2,48475,0,0.00,2,2,0,2,44656,50000,2083,49744,0,0,0,0,0.00,0.00,0.00,0.00
2014-05-14 10:30:00,2,49168,0,0.00,2,2,0,2,46535,50000,1094,49795,0,0,0,0,0.00,0.00,0.00,0.00
2014-05-14 10:40:00,2,49988,0,0.00,2,2,0,2,49927,50000,25,50000,0,0,0,0,0.00,0.00,0.00,0.00
2014-05-14 10:50:00,2,47334,0,0.00,2,2,0,2,40964,50000,2933,48404,0,0,0,0,0.00,0.00,0.00,0.00
2014-05-14 11:00:00,2,48604,0,0.00,2,2,0,2,41791,50000,2579,49817,0,0,0,0,0.00,0.00,0.00,0.00
2014-05-14 11:10:00,2,47113,0,0.00,2,2,0,2,41270,50000,3320,48718,0,0,0,0,0.00,0.00,0.00,0.00
2014-05-14 11:20:00,2,44934,0,0.00,2,2,0,2,33915,50000,4836,45117,0,0,0,0,0.00,0.00,0.00,0.00
2014-05-14 11:30:00,2,43364,0,0.00,2,2,0,2,35719,50000,4778,41996,0,0,0,0,0.00,0.00,0.00,0.00
2014-05-14 11:40:00,2,45216,0,0.00,2,2,0,2,36659,50000,4255,45491,0,0,0,0,0.00,0.00,0.00,0.00
2014-05-14 11:50:00,2,46079,0,0.00,2,2,0,2,39924,50000,3621,45908,0,0,0,0,0.00,0.00,0.00,0.00
2014-05-14 12:00:00,2,47971,0,0.00,2,2,0,2,40927,50000,2834,49795,0,0,0,0,0.00,0.00,0.00,0.00
2014-05-14 12:10:00,2,48766,0,0.00,2,2,0,2,45974,50000,1651,49716,0,0,0,0,0.00,0.00,0.00,0.00
2014-05-14 12:20:00,2,49199,0,0.00,2,2,0,2,45682,50000,1555,50000,0,0,0,0,0.00,0.00,0.00,0.00
2014-05-14 12:30:00,2,49792,0,0.00,2,2,0,2,48430,50000,479,50000,0,0,0,0,0.00,0.00,0.00,0.00
2014-05-14 12:40:00,2,50000,0,0.00,2,2,0,2,50000,50000,0,50000,0,0,0,0,0.00,0.00,0.00,0.00
2014-05-14 12:50:00,2,49954,0,0.00,2,2,0,2,49543,50000,137,50000,0,0,0,0,0.00,0.00,0.00,0.00
2014-05-14 13:00:00,2,49050,0,0.00,2,2,0,2,44934,50000,1753,50000,0,0,0,0,0.00,0.00,0.00,0.00
2014-05-14 13:10:00,2,50000,0,0.00,2,2,0,2,50000,50000,0,50000,0,0,0,0,0.00,0.00,0.00,0.00
2014-05-14 13:20:00,2,50000,0,0.00,2,2,0,2,50000,50000,0,50000,0,0,0,0,0.00,0.00,0.00,0.00
2014-05-14 13:30:00,2,50000,0,0.00,2,2,0,2,50000,50000,0,50000,0,0,0,0,0.00,0.00,0.00,0.00
2014-05-14 13:40:00,2,50000,0,0.00,2,2,0,2,50000,50000,0,50000,0,0,0,0,0.00,0.00,0.00,0.00
2014-05-14 13:50:00,2,49720,0,0.00,2,2,0,2,48561,50000,560,50000,0,0,0,0,0.00,0.00,0.00,0.00
2014-05-14 14:00:00,2,49900,0,0.00,2,2,0,2,48999,50000,300,50000,0,0,0,0,0.00,0.00,0.00,0.00
2014-05-14 14:10:00,2,49714,0,0.00,2,2,0,2,47862,50000,654,50000,0,0,0,0,0.00,0.00,0.00,0.00
2014-05-14 14:20:00,2,49704,0,0.00,2,2,0,2,47042,50000,887,50000,0,0,0,0,0.00,0.00,0.00,0.00
2014-05-14 14:30:00,2,49839,0,0.00,2,2,0,2,48386,50000,484,50000,0,0,0,0,0.00,0.00,0.00,0.00
2014-05-14 14:40:00,2,49725,0,0.00,2,2,0,2,47248,50000,826,50000,0,0,0,0,0.00,0.00,0.00,0.00
2014-05-14 14:50:00,2,49998,0,0.00,2,2,0,2,49979,50000,6,50000,0,0,0,0,0.00,0.00,0.00,0.00
2014-05-14 15:00:00,2,50000,0,0.00,2,2,0,2,50000,50000,0,50000,0,0,0,0,0.00,0.00,0.00,0.00
2014-05-14 15:10:00,2,49692,0,0.00,2,2,0,2,48295,50000,615,50000,0,0,0,0,0.00,0.00,0.00,0.00
2014-05-14 15:20:00,2,28797,0,0.00,2,2,0,2,14301,47873,12312,26256,0,0,0,0,0.00,0.00,0.00,0.00
2014-05-14 15:30:00,2,13796,0,0.00,2,2,0,2,8998,19170,2949,14428,0,0,0,0,0.00,0.00,0.00,0.00
2014-05-14 15:40:00,2,8196,4,0.00,2,2,0,2,6774,11942,1480,8024,0,10,5,0,0.00,0.00,0.00,0.00
2014-05-14 15:50:00,2,7072,10,0.00,2,2,0,2,5404,9595,1167,6768,10,10,0,10,0.00,0.00,0.00,0.00
2014-05-14 16:00:00,2,5984,10,0.00,2,2,0,2,4722,7588,824,5816,10,10,0,10,0.00,0.00,0.00,0.00
2014-05-14 16:10:00,2,5756,10,0.00,2,2,0,2,3853,9468,1655,5315,10,10,0,10,0.00,0.00,0.00,0.00
2014-05-14 16:20:00,2,7138,10,0.00,2,2,0,2,4588,9489,1625,6866,10,10,0,10,0.00,0.00,0.00,0.00
2014-05-14 16:30:00,2,9129,10,0.00,2,2,0,2,6396,14562,2172,8267,10,10,0,10,0.00,0.00,0.00,0.00
2014-05-14 16:40:00,2,10072,6,0.00,2,2,0,2,8324,11180,985,10490,0,10,5,10,0.00,0.00,0.00,0.00
2014-05-14 16:50:00,2,18425,0,0.00,2,2,0,2,10698,38021,9298,13234,0,0,0,0,0.00,0.00,0.00,0.00
2014-05-14 17:00:00,2,42947,0,0.00,2,2,0,2,31840,50000,5691,42467,0,0,0,0,0.00,0.00,0.00,0.00
2014-05-14 17:10:00,2,48676,0,0.00,2,2,0,2,42753,50000,2384,50000,0,0,0,0,0.00,0.00,0.00,0.00
2014-05-14 17:20:00,2,49958,0,0.00,2,2,0,2,49585,50000,124,50000,0,0,0,0,0.00,0.00,0.00,0.00
2014-05-14 17:30:00,2,11791,0,0.00,2,2,0,2,5930,16172,2821,12144,0,0,0,0,0.00,0.00,0.00,0.00
2014-05-14 17:40:00,2,17002,0,0.00,2,2,0,2,11501,21761,3186,16624,0,0,0,0,0.00,0.00,0.00,0.00
2014-05-14 17:50:00,2,10324,0,0.00,2,2,0,2,5949,24678,5171,8588,0,0,0,0,0.00,0.00,0.00,0.00
2014-05-14 18:00:00,2,10037,10,0.00,2,2,0,2,6207,12791,2106,10682,10,10,0,10,0.00,0.00,0.00,0.00
2014-05-14 18:10:00,2,16522,4,0.00,2,2,0,2,9626,21845,3110,16410,0,10,5,0,0.00,0.00,0.00,0.00
2014-05-14 18:20:00,2,22144,0,0.00,2,2,0,2,13656,28566,4279,22165,0,0,0,0,0.00,0.00,0.00,0.00
2014-05-14 18:30:00,2,17744,0,0.00,2,2,0,2,13127,22374,3432,18014,0,0,0,0,0.00,0.00,0.00,0.00
2014-05-14 18:40:00,2,16093,0,0.00,2,2,0,2,9177,26242,4644,16241,0,0,0,0,0.00,0.00,0.00,0.00
2014-05-14 18:50:00,2,35630,0,0.00,2,2,0,2,15998,47857,9568,38676,0,0,0,0,0.00,0.00,0.00,0.00
2014-05-14 19:00:00,2,48847,0,0.00,2,2,0,2,46141,50000,1619,49928,0,0,0,0,0.00,0.00,0.00,0.00
2014-05-14 19:10:00,2,44234,0,0.00,2,2,0,2,37998,50000,3368,43388,0,0,0,0,0.00,0.00,0.00,0.00
2014-05-14 19:20:00,2,42885,0,0.00,2,2,0,2,38402,50000,4202,40629,0,0,0,0,0.00,0.00,0.00,0.00
2014-05-14 19:30:00,2,43867,0,0.00,2,2,0,2,38189,50000,3459,44368,0,0,0,0,0.00,0.00,0.00,0.00
2014-05-14 19:40:00,2,35100,0,0.00,2,2,0,2,15248,50000,13193,38636,0,0,0,0,0.00,0.00,0.00,0.00
2014-05-14 19:50:00,2,10925,0,0.00,2,2,0,2,6924,13131,2041,11608,0,0,0,0,0.00,0.00,0.00,0.00
2014-05-14 20:00:00,2,9634,0,0.00,2,2,0,2,6059,12752,1737,9599,0,0,0,0,0.00,0.00,0.00,0.00
2014-05-14 20:10:00,2,13761,0,0.00,2,2,0,2,8969,18632,3071,13667,0,0,0,0,0.00,0.00,0.00,0.00
2014-05-14 20:20:00,2,21730,0,0.00,2,2,0,2,12326,30168,5729,23190,0,0,0,0,0.00,0.00,0.00,0.00
2014-05-14 20:30:00,2,33951,0,0.00,2,2,0,2,25532,43953,4993,33072,0,0,0,0,0.00,0.00,0.00,0.00
2014-05-14 20:40:00,2,18626,0,0.00,2,2,0,2,11404,33909,6253,16455,0,0,0,0,0.00,0.00,0.00,0.00
2014-05-14 20:50:00,2,19960,0,0.00,2,2,0,2,12945,25345,4092,20787,0,0,0,0,0.00,0.00,0.00,0.00
2014-05-14 21:00:00,2,24734,0,0.00,2,2,0,2,17914,35556,6277,23057,0,0,0,0,0.00,0.00,0.00,0.00
2014-05-14 21:10:00,2,27622,0,0.00,2,2,0,2,14748,50000,9778,27699,0,0,0,0,0.00,0.00,0.00,0.00
2014-05-14 21:20:00,2,40688,0,0.00,2,2,0,2,28169,48808,5770,40040,0,0,0,0,0.00,0.00,0.00,0.00
2014-05-14 21:30:00,2,36542,0,0.00,2,2,0,2,29110,44563,5099,35705,0,0,0,0,0.00,0.00,0.00,0.00
2014-05-14 21:40:00,2,37451,0,0.00,2,2,0,2,32549,48344,4948,34988,0,0,0,0,0.00,0.00,0.00,0.00
2014-05-14 21:50:00,2,39132,0,0.00,2,2,0,2,33079,50000,4927,38320,0,0,0,0,0.00,0.00,0.00,0.00
2014-05-14 22:00:00,2,37973,0,0.00,2,2,0,2,27698,50000,7544,35248,0,0,0,0,0.00,0.00,0.00,0.00
2014-05-14 22:10:00,2,39617,0,0.00,2,2,0,2,26734,50000,8783,39149,0,0,0,0,0.00,0.00,0.00,0.00
2014-05-14 22:20:00,2,39623,0,0.00,2,2,0,2,31994,50000,5641,38502,0,0,0,0,0.00,0.00,0.00,0.00
2014-05-14 22:30:00,2,40318,0,0.00,2,2,0,2,30342,50000,5165,40894,0,0,0,0,0.00,0.00,0.00,0.00
2014-05-14 22:40:00,2,31920,0,0.00,2,2,0,2,23739,42824,6494,31468,0,0,0,0,0.00,0.00,0.00,0.00
2014-05-14 22:50:00,2,34183,0,0.00,2,2,0,2,27946,43653,4799,34059,0,0,0,0,0.00,0.00,0.00,0.00
2014-05-14 23:00:00,2,37073,0,0.00,2,2,0,2,27331,46241,6197,37122,0,0,0,0,0.00,0.00,0.00,0.00
2014-05-14 23:10:00,2,35873,0,0.00,2,2,0,2,23899,43383,4864,36802,0,0,0,0,0.00,0.00,0.00,0.00
2014-05-14 23:20:00,2,38275,0,0.00,2,2,0,2,22798,50000,9547,37143,0,0,0,0,0.00,0.00,0.00,0.00
2014-05-14 23:30:00,2,39828,0,0.00,2,2,0,2,32829,50000,5967,37965,0,0,0,0,0.00,0.00,0.00,0.00
2014-05-14 23:40:00,2,41678,0,0.00,2,2,0,2,31097,49421,5507,42912,0,0,0,0,0.00,0.00,0.00,0.00
2014-05-14 23:50:00,2,41520,0,0.00,2,2,0,2,30002,47395,4639,42340,0,0,0,0,0.00,0.00,0.00,0.00
